Time,TemperatureF,DewpointF,PressureIn,WindDirection,WindDirectionDegrees,WindSpeedMPH,WindSpeedGustMPH,Humidity,HourlyPrecipIn,Conditions,Clouds,dailyrainin,SoftwareType,DateUTC
2013-09-02 00:00:00,71.9,71.0,29.82,SSW,204,0.0,2.0,96,0.00,,,0.00,weatherlink.com 1.10,2013-09-02 04:00:00,
2013-09-02 00:15:00,71.9,71.0,29.82,SSW,204,0.0,1.0,96,0.00,,,0.00,weatherlink.com 1.10,2013-09-02 04:15:00,
2013-09-02 00:30:00,71.9,71.0,29.81,SSW,204,0.0,2.0,96,0.00,,,0.00,weatherlink.com 1.10,2013-09-02 04:30:00,
2013-09-02 00:45:00,71.9,71.0,29.81,SSW,204,0.0,2.0,96,0.00,,,0.00,weatherlink.com 1.10,2013-09-02 04:45:00,
2013-09-02 01:00:00,71.9,71.0,29.81,SSW,204,0.0,3.0,96,0.00,,,0.00,weatherlink.com 1.10,2013-09-02 05:00:00,
2013-09-02 01:15:00,71.9,71.0,29.80,SSW,202,0.0,5.0,96,0.00,,,0.00,weatherlink.com 1.10,2013-09-02 05:15:00,
2013-09-02 01:31:00,71.7,71.0,29.80,SSW,202,0.0,3.0,96,0.00,,,0.00,weatherlink.com 1.10,2013-09-02 05:31:00,
2013-09-02 01:46:00,71.6,70.0,29.80,SSW,202,0.0,2.0,96,0.00,,,0.00,weatherlink.com 1.10,2013-09-02 05:46:00,
2013-09-02 02:01:00,71.5,70.0,29.79,SSW,202,0.0,1.0,96,0.00,,,0.00,weatherlink.com 1.10,2013-09-02 06:01:00,
2013-09-02 02:16:00,71.5,70.0,29.79,SSW,202,0.0,0.0,96,0.00,,,0.00,weatherlink.com 1.10,2013-09-02 06:16:00,
2013-09-02 02:31:00,71.6,70.0,29.79,SSW,202,0.0,1.0,96,0.00,,,0.00,weatherlink.com 1.10,2013-09-02 06:31:00,
2013-09-02 02:46:00,71.6,70.0,29.79,SSW,202,0.0,2.0,96,0.00,,,0.00,weatherlink.com 1.10,2013-09-02 06:46:00,
2013-09-02 03:01:00,71.5,70.0,29.78,SSW,202,0.0,0.0,96,0.00,,,0.00,weatherlink.com 1.10,2013-09-02 07:01:00,
2013-09-02 03:16:00,71.3,70.0,29.78,SSW,202,0.0,2.0,96,0.00,,,0.00,weatherlink.com 1.10,2013-09-02 07:16:00,
2013-09-02 03:31:00,71.2,70.0,29.78,SSW,202,1.0,2.0,96,0.00,,,0.00,weatherlink.com 1.10,2013-09-02 07:31:00,
2013-09-02 03:46:00,71.1,70.0,29.77,SSW,202,0.0,1.0,96,0.00,,,0.00,weatherlink.com 1.10,2013-09-02 07:46:00,
2013-09-02 04:01:00,71.1,70.0,29.77,SSW,202,0.0,1.0,96,0.00,,,0.00,weatherlink.com 1.10,2013-09-02 08:01:00,
2013-09-02 04:16:00,71.1,70.0,29.77,SSW,202,0.0,2.0,96,0.00,,,0.00,weatherlink.com 1.10,2013-09-02 08:16:00,
2013-09-02 04:31:00,71.1,70.0,29.77,SSW,202,0.0,0.0,96,0.02,,,0.02,weatherlink.com 1.10,2013-09-02 08:31:00,
2013-09-02 04:46:00,71.1,70.0,29.77,SSW,202,0.0,0.0,97,0.03,,,0.04,weatherlink.com 1.10,2013-09-02 08:46:00,
2013-09-02 05:01:00,70.8,70.0,29.77,SSW,194,0.0,10.0,96,0.09,,,0.09,weatherlink.com 1.10,2013-09-02 09:01:00,
2013-09-02 05:16:00,69.6,69.0,29.77,SW,218,0.0,1.0,96,0.27,,,0.27,weatherlink.com 1.10,2013-09-02 09:16:00,
2013-09-02 05:31:00,69.0,68.0,29.78,SW,218,0.0,2.0,96,0.25,,,0.27,weatherlink.com 1.10,2013-09-02 09:31:00,
2013-09-02 05:46:00,69.0,68.0,29.78,SW,218,0.0,0.0,96,0.21,,,0.27,weatherlink.com 1.10,2013-09-02 09:46:00,
2013-09-02 06:01:00,68.9,68.0,29.78,SW,218,0.0,0.0,96,0.19,,,0.28,weatherlink.com 1.10,2013-09-02 10:01:00,
2013-09-02 06:16:00,68.9,68.0,29.78,SW,218,0.0,0.0,96,0.01,,,0.28,weatherlink.com 1.10,2013-09-02 10:16:00,
2013-09-02 06:31:00,68.9,68.0,29.78,SW,218,0.0,0.0,96,0.01,,,0.28,weatherlink.com 1.10,2013-09-02 10:31:00,
2013-09-02 06:46:00,69.2,68.0,29.78,SW,218,0.0,0.0,97,0.01,,,0.28,weatherlink.com 1.10,2013-09-02 10:46:00,
2013-09-02 07:01:00,69.5,69.0,29.78,SW,218,0.0,0.0,97,0.00,,,0.28,weatherlink.com 1.10,2013-09-02 11:01:00,
2013-09-02 07:16:00,69.7,69.0,29.78,SW,218,0.0,0.0,97,0.00,,,0.28,weatherlink.com 1.10,2013-09-02 11:16:00,
2013-09-02 07:31:00,70.2,69.0,29.78,SW,218,0.0,0.0,97,0.00,,,0.28,weatherlink.com 1.10,2013-09-02 11:31:00,
2013-09-02 07:46:00,70.6,70.0,29.78,SW,218,0.0,1.0,97,0.00,,,0.28,weatherlink.com 1.10,2013-09-02 11:46:00,
2013-09-02 08:01:00,70.8,70.0,29.78,SW,218,0.0,0.0,97,0.00,,,0.28,weatherlink.com 1.10,2013-09-02 12:01:00,
2013-09-02 08:16:00,70.9,70.0,29.78,SW,218,0.0,0.0,97,0.00,,,0.28,weatherlink.com 1.10,2013-09-02 12:16:00,
2013-09-02 08:31:00,71.3,70.0,29.78,ESE,116,0.0,0.0,97,0.00,,,0.28,weatherlink.com 1.10,2013-09-02 12:31:00,
2013-09-02 08:46:00,71.5,71.0,29.78,ESE,116,0.0,1.0,97,0.00,,,0.28,weatherlink.com 1.10,2013-09-02 12:46:00,
2013-09-02 09:01:00,71.7,71.0,29.77,SE,137,0.0,1.0,97,0.00,,,0.28,weatherlink.com 1.10,2013-09-02 13:01:00,
2013-09-02 09:16:00,72.2,71.0,29.77,SE,137,0.0,0.0,97,0.00,,,0.28,weatherlink.com 1.10,2013-09-02 13:16:00,
2013-09-02 09:31:00,72.6,72.0,29.77,South,187,0.0,1.0,97,0.00,,,0.28,weatherlink.com 1.10,2013-09-02 13:31:00,
2013-09-02 09:46:00,72.8,72.0,29.77,SSW,206,0.0,2.0,97,0.00,,,0.28,weatherlink.com 1.10,2013-09-02 13:46:00,
2013-09-02 10:01:00,73.2,72.0,29.77,SSW,206,0.0,2.0,97,0.00,,,0.28,weatherlink.com 1.10,2013-09-02 14:01:00,
2013-09-02 10:16:00,73.6,73.0,29.78,SSW,206,1.0,1.0,97,0.00,,,0.28,weatherlink.com 1.10,2013-09-02 14:16:00,
2013-09-02 10:31:00,73.2,72.0,29.78,SE,127,0.0,3.0,97,0.00,,,0.28,weatherlink.com 1.10,2013-09-02 14:31:00,
2013-09-02 10:46:00,72.9,72.0,29.77,ESE,115,0.0,4.0,96,0.00,,,0.28,weatherlink.com 1.10,2013-09-02 14:46:00,
2013-09-02 11:01:00,73.0,72.0,29.77,East,88,0.0,3.0,97,0.00,,,0.28,weatherlink.com 1.10,2013-09-02 15:01:00,
2013-09-02 11:16:00,72.9,72.0,29.77,SW,236,1.0,2.0,96,0.01,,,0.29,weatherlink.com 1.10,2013-09-02 15:16:00,
2013-09-02 11:31:00,72.7,72.0,29.76,SW,236,0.0,2.0,96,0.01,,,0.29,weatherlink.com 1.10,2013-09-02 15:31:00,
2013-09-02 11:46:00,72.8,72.0,29.76,NE,42,0.0,3.0,97,0.01,,,0.29,weatherlink.com 1.10,2013-09-02 15:46:00,
2013-09-02 12:01:00,72.9,72.0,29.75,South,171,0.0,3.0,96,0.01,,,0.29,weatherlink.com 1.10,2013-09-02 16:01:00,
2013-09-02 12:16:00,73.0,72.0,29.75,South,171,0.0,2.0,97,0.00,,,0.29,weatherlink.com 1.10,2013-09-02 16:16:00,
2013-09-02 12:31:00,73.2,72.0,29.74,ESE,109,0.0,5.0,97,0.00,,,0.29,weatherlink.com 1.10,2013-09-02 16:31:00,
2013-09-02 12:46:00,73.4,73.0,29.74,East,80,0.0,3.0,97,0.00,,,0.29,weatherlink.com 1.10,2013-09-02 16:46:00,
2013-09-02 13:01:00,73.0,72.0,29.73,SSE,165,0.0,4.0,96,0.00,,,0.29,weatherlink.com 1.10,2013-09-02 17:01:00,
2013-09-02 13:16:00,72.8,72.0,29.74,South,188,2.0,4.0,96,0.00,,,0.29,weatherlink.com 1.10,2013-09-02 17:16:00,
2013-09-02 13:31:00,72.8,72.0,29.75,SW,234,0.0,6.0,96,0.00,,,0.29,weatherlink.com 1.10,2013-09-02 17:31:00,
2013-09-02 13:46:00,72.6,71.0,29.75,SW,225,0.0,4.0,96,0.00,,,0.29,weatherlink.com 1.10,2013-09-02 17:46:00,
2013-09-02 14:01:00,72.9,72.0,29.74,SW,225,1.0,3.0,96,0.00,,,0.29,weatherlink.com 1.10,2013-09-02 18:01:00,
2013-09-02 14:16:00,73.2,72.0,29.74,SW,225,0.0,0.0,96,0.00,,,0.29,weatherlink.com 1.10,2013-09-02 18:16:00,
2013-09-02 14:31:00,73.9,72.0,29.74,SW,225,0.0,2.0,95,0.00,,,0.29,weatherlink.com 1.10,2013-09-02 18:31:00,
2013-09-02 14:46:00,74.6,73.0,29.74,SW,225,0.0,1.0,94,0.00,,,0.29,weatherlink.com 1.10,2013-09-02 18:46:00,
2013-09-02 15:01:00,74.5,72.0,29.73,SW,225,1.0,2.0,93,0.00,,,0.29,weatherlink.com 1.10,2013-09-02 19:01:00,
2013-09-02 15:17:00,75.1,73.0,29.72,SW,225,0.0,1.0,93,0.00,,,0.29,weatherlink.com 1.10,2013-09-02 19:17:00,
2013-09-02 15:32:00,75.7,73.0,29.72,SW,225,0.0,2.0,91,0.00,,,0.29,weatherlink.com 1.10,2013-09-02 19:32:00,
2013-09-02 15:47:00,75.8,73.0,29.71,SW,225,0.0,5.0,91,0.00,,,0.29,weatherlink.com 1.10,2013-09-02 19:47:00,
2013-09-02 16:02:00,75.8,73.0,29.71,South,189,0.0,5.0,92,0.00,,,0.29,weatherlink.com 1.10,2013-09-02 20:02:00,
2013-09-02 16:17:00,75.4,73.0,29.70,ESE,118,0.0,6.0,92,0.00,,,0.29,weatherlink.com 1.10,2013-09-02 20:17:00,
2013-09-02 16:32:00,75.0,73.0,29.70,East,96,0.0,3.0,92,0.00,,,0.29,weatherlink.com 1.10,2013-09-02 20:32:00,
2013-09-02 16:47:00,74.7,72.0,29.70,SSW,204,0.0,3.0,92,0.00,,,0.29,weatherlink.com 1.10,2013-09-02 20:47:00,
2013-09-02 17:02:00,74.1,72.0,29.69,SSW,202,0.0,2.0,92,0.00,,,0.29,weatherlink.com 1.10,2013-09-02 21:02:00,
2013-09-02 17:17:00,73.6,72.0,29.69,SSW,202,0.0,3.0,93,0.00,,,0.29,weatherlink.com 1.10,2013-09-02 21:17:00,
2013-09-02 17:32:00,73.1,71.0,29.69,SSE,163,0.0,5.0,94,0.00,,,0.29,weatherlink.com 1.10,2013-09-02 21:32:00,
2013-09-02 17:47:00,72.6,71.0,29.68,SSW,208,0.0,2.0,95,0.00,,,0.29,weatherlink.com 1.10,2013-09-02 21:47:00,
2013-09-02 18:02:00,72.2,71.0,29.67,SSW,206,0.0,2.0,95,0.00,,,0.29,weatherlink.com 1.10,2013-09-02 22:02:00,
2013-09-02 18:17:00,72.0,71.0,29.68,East,90,1.0,3.0,95,0.00,,,0.29,weatherlink.com 1.10,2013-09-02 22:17:00,
2013-09-02 18:32:00,71.9,71.0,29.68,SSW,207,1.0,5.0,96,0.00,,,0.29,weatherlink.com 1.10,2013-09-02 22:32:00,
2013-09-02 18:47:00,71.8,71.0,29.68,SSW,203,0.0,6.0,96,0.00,,,0.29,weatherlink.com 1.10,2013-09-02 22:47:00,
2013-09-02 19:02:00,71.8,71.0,29.68,SW,220,0.0,3.0,96,0.00,,,0.29,weatherlink.com 1.10,2013-09-02 23:02:00,
2013-09-02 19:17:00,71.8,71.0,29.68,SW,220,0.0,2.0,96,0.00,,,0.29,weatherlink.com 1.10,2013-09-02 23:17:00,
2013-09-02 19:32:00,71.8,71.0,29.68,SW,220,0.0,1.0,96,0.00,,,0.29,weatherlink.com 1.10,2013-09-02 23:32:00,
2013-09-02 19:47:00,71.9,71.0,29.68,SW,220,0.0,5.0,96,0.00,,,0.29,weatherlink.com 1.10,2013-09-02 23:47:00,
2013-09-02 20:02:00,71.8,71.0,29.68,SW,220,0.0,1.0,96,0.00,,,0.29,weatherlink.com 1.10,2013-09-03 00:02:00,
2013-09-02 20:17:00,71.8,71.0,29.68,SW,220,0.0,1.0,96,0.00,,,0.29,weatherlink.com 1.10,2013-09-03 00:17:00,
2013-09-02 20:32:00,71.6,70.0,29.68,SW,220,0.0,2.0,96,0.00,,,0.29,weatherlink.com 1.10,2013-09-03 00:32:00,
2013-09-02 20:47:00,71.3,70.0,29.69,SW,220,0.0,1.0,96,0.00,,,0.29,weatherlink.com 1.10,2013-09-03 00:47:00,
2013-09-02 21:02:00,71.0,70.0,29.68,SSW,207,0.0,3.0,96,0.00,,,0.29,weatherlink.com 1.10,2013-09-03 01:02:00,
2013-09-02 21:17:00,71.1,70.0,29.68,SW,214,0.0,3.0,96,0.00,,,0.29,weatherlink.com 1.10,2013-09-03 01:17:00,
2013-09-02 21:32:00,71.1,70.0,29.69,SSW,197,0.0,4.0,96,0.00,,,0.29,weatherlink.com 1.10,2013-09-03 01:32:00,
2013-09-02 21:47:00,71.0,70.0,29.70,SSW,194,0.0,7.0,96,0.00,,,0.29,weatherlink.com 1.10,2013-09-03 01:47:00,
2013-09-02 22:02:00,70.9,70.0,29.70,South,175,0.0,5.0,96,0.00,,,0.29,weatherlink.com 1.10,2013-09-03 02:02:00,
2013-09-02 22:17:00,70.8,70.0,29.70,SSW,204,0.0,3.0,96,0.00,,,0.29,weatherlink.com 1.10,2013-09-03 02:17:00,
2013-09-02 22:32:00,70.8,70.0,29.70,SSW,204,0.0,3.0,96,0.00,,,0.29,weatherlink.com 1.10,2013-09-03 02:32:00,
2013-09-02 22:47:00,70.8,70.0,29.71,SSW,204,0.0,3.0,96,0.00,,,0.29,weatherlink.com 1.10,2013-09-03 02:47:00,
2013-09-02 23:02:00,70.9,70.0,29.70,SSW,204,0.0,2.0,96,0.00,,,0.29,weatherlink.com 1.10,2013-09-03 03:02:00,
2013-09-02 23:17:00,70.9,70.0,29.71,SSW,204,2.0,2.0,96,0.00,,,0.29,weatherlink.com 1.10,2013-09-03 03:17:00,
2013-09-02 23:32:00,70.9,70.0,29.71,SSW,204,0.0,2.0,97,0.00,,,0.29,weatherlink.com 1.10,2013-09-03 03:32:00,
2013-09-02 23:47:00,71.0,70.0,29.71,SSW,204,0.0,1.0,97,0.00,,,0.29,weatherlink.com 1.10,2013-09-03 03:47:00,